Theta_e
304 304 305 305 305 304 304 304 303 303 303 303 303 303 303 304 304 304 305 305 306 306 306 306 306 307 306 307 307 308 309 310 309 308 307 308 308 307 305 305 306 306 306 305 305 305 306 308 308 307 307 308 310 311 310 311 310 311 318 320 320 323 321 318 315 311 313 313 310 310 310 310 313 311 310 310 310 310 310 310 310 310 309 309 309 309 310 311
304 304 304 305 305 304 304 304 304 303 303 303 303 303 303 303 304 304 305 305 305 305 306 306 306 306 306 307 307 307 309 310 311 311 309 308 308 306 305 305 306 306 305 305 305 305 305 307 307 307 306 309 311 310 311 312 310 314 319 317 323 328 318 312 311 309 310 310 309 309 309 309 311 310 309 311 309 309 310 310 308 309 308 308 309 309 310 311
304 304 304 304 305 305 304 304 304 304 303 303 303 303 303 303 304 304 304 305 305 305 305 305 306 306 306 306 306 307 308 310 313 312 309 308 307 305 305 305 305 306 306 305 305 305 305 305 306 306 307 308 310 310 311 312 310 311 313 316 325 323 314 309 309 309 309 310 310 309 309 308 309 308 308 310 310 310 312 310 308 309 308 308 309 309 310 311
305 304 304 304 304 304 305 304 304 304 304 303 303 303 303 304 303 303 304 304 305 305 305 305 305 305 305 306 306 307 307 310 314 310 309 309 308 306 305 305 305 305 306 305 305 305 305 306 307 307 308 308 309 310 311 312 311 310 312 319 320 312 311 311 309 311 310 310 310 309 309 309 309 309 309 310 310 311 310 308 308 308 307 308 310 311 311 311
308 306 304 304 304 304 304 305 305 304 304 304 303 303 303 304 303 303 303 303 304 304 304 304 305 305 305 305 306 306 306 313 316 310 310 310 309 307 305 305 305 305 305 305 305 305 305 307 308 309 309 308 308 311 311 311 311 311 312 314 312 308 309 311 309 311 310 310 310 308 310 310 309 309 309 310 312 311 307 306 307 307 307 309 310 311 311 311
314 311 307 305 304 304 304 304 304 304 304 304 303 303 304 303 303 303 303 303 303 304 304 304 304 305 305 305 305 305 306 313 315 311 311 311 310 308 306 305 305 305 305 305 305 305 306 307 308 309 308 308 309 311 312 311 311 313 314 309 309 309 308 309 310 311 310 310 310 309 310 309 308 309 308 308 311 309 306 307 306 307 308 309 310 311 310 310
319 316 313 309 306 305 304 304 304 304 304 304 304 303 304 304 303 303 303 303 303 303 304 304 304 304 305 305 305 305 305 309 311 311 311 311 311 309 307 306 305 305 304 305 305 305 306 307 308 309 308 308 308 310 311 312 310 312 315 310 308 309 308 309 311 311 311 310 310 309 310 309 309 311 308 307 308 307 306 307 306 307 307 308 309 309 308 308
322 320 318 315 310 307 305 304 304 304 304 304 304 304 304 303 303 303 303 303 303 303 303 304 304 304 304 304 304 305 306 308 309 311 313 312 311 309 307 306 305 306 304 304 305 305 305 307 308 308 309 309 307 309 311 311 311 312 314 311 308 310 310 311 312 311 312 311 310 310 310 310 310 310 309 308 307 307 307 307 307 307 307 307 307 307 307 307
322 322 321 320 317 312 308 306 304 304 304 304 304 304 304 303 303 303 303 303 303 303 303 303 303 303 304 304 305 306 307 309 311 312 313 312 311 309 308 307 306 306 305 304 304 304 305 307 309 308 308 309 308 310 310 311 314 312 311 310 309 311 311 312 312 312 312 311 311 311 312 311 309 310 310 309 307 308 308 307 309 308 308 308 307 307 307 308
322 322 322 322 321 318 315 310 307 305 304 304 304 304 304 304 303 303 303 303 303 303 303 303 303 303 303 303 306 307 308 310 311 311 312 312 311 309 309 308 307 306 305 305 304 304 305 306 309 309 308 308 308 309 309 311 314 312 310 310 311 311 310 310 310 310 310 310 310 313 315 311 308 309 310 309 308 309 308 308 309 309 309 308 308 308 308 308
322 322 322 322 322 321 320 317 313 309 306 304 304 304 304 304 303 303 303 303 302 302 302 303 303 302 303 303 304 306 308 309 309 310 310 310 310 309 309 308 308 307 306 305 304 305 304 305 307 307 307 308 308 309 309 310 312 311 311 311 311 309 309 309 308 308 309 310 310 312 314 310 309 310 311 310 309 309 308 308 308 309 309 309 309 308 308 308
322 321 321 322 322 322 322 321 319 315 311 307 305 304 304 303 303 303 303 302 302 302 302 302 302 302 303 302 303 306 306 307 307 307 307 307 307 308 308 308 308 307 306 305 304 305 304 305 305 305 308 309 309 309 310 311 310 310 310 312 315 313 314 312 309 308 308 311 310 309 312 312 313 313 312 309 310 309 308 308 308 309 309 310 309 309 308 309
321 321 321 321 321 322 322 322 322 320 317 313 308 305 304 304 303 302 302 302 302 302 302 302 302 302 302 302 304 306 306 306 306 306 306 306 307 307 308 308 308 306 306 305 304 305 304 304 304 305 308 309 310 309 310 309 308 311 310 311 315 316 320 314 309 311 310 310 309 308 311 314 317 313 310 310 310 309 309 308 309 309 310 310 310 310 309 309
321 321 321 321 321 321 321 321 322 322 320 318 314 309 305 304 303 302 302 302 302 301 301 301 301 302 302 303 305 305 305 305 305 306 306 306 306 307 308 308 307 306 306 305 305 305 304 305 305 306 307 309 309 308 311 312 312 314 310 313 315 315 324 318 309 312 313 311 309 308 311 312 315 312 309 310 309 307 308 308 309 310 310 310 310 310 310 309
320 320 320 320 320 320 321 321 321 321 321 321 319 315 309 305 304 303 301 302 301 301 301 301 301 301 301 302 303 304 304 304 305 305 305 306 307 307 307 307 306 306 305 305 305 304 305 305 305 307 308 309 309 309 315 318 317 316 312 320 318 314 325 322 310 311 315 313 307 308 313 312 311 310 309 309 308 307 306 307 309 310 311 311 310 310 310 310
319 319 320 320 320 320 320 320 320 321 321 322 321 319 314 308 304 303 302 301 301 301 300 301 302 302 302 304 304 306 306 306 306 306 307 307 307 308 307 307 306 306 305 305 305 305 305 305 306 309 310 311 312 314 317 317 321 320 313 319 321 314 319 317 312 308 310 312 309 309 313 313 312 310 309 310 309 309 308 309 310 311 311 311 310 310 310 310
319 319 319 319 319 319 320 319 319 320 320 321 321 322 319 312 306 303 302 301 300 300 299 303 305 304 305 306 306 308 308 308 309 308 309 308 308 308 307 307 307 306 305 305 305 305 306 306 307 310 310 311 313 315 316 317 325 324 313 314 320 316 313 314 315 309 306 311 311 311 311 311 312 309 308 309 309 310 310 310 310 310 310 309 309 309 309 310
318 319 318 319 319 319 319 319 319 318 319 320 321 321 320 316 308 304 302 300 300 301 300 302 304 304 306 306 305 307 308 308 308 309 309 309 308 307 306 306 307 305 305 307 307 306 307 307 308 311 311 310 312 313 315 319 324 323 317 317 319 315 312 313 314 311 310 312 312 313 312 310 310 309 308 308 308 308 308 308 308 308 308 308 307 307 308 309
316 318 318 318 319 319 319 319 318 318 317 319 320 320 320 316 309 305 303 300 300 304 305 304 303 303 307 308 305 306 307 308 309 308 308 308 307 306 306 306 306 306 307 310 311 309 308 309 310 313 313 312 313 313 315 319 321 322 322 319 318 317 313 312 313 312 311 314 313 313 312 311 310 310 309 309 308 307 307 306 306 306 306 306 306 306 307 308
313 315 317 318 318 318 318 318 318 317 316 317 318 319 318 312 307 307 306 303 302 303 305 305 304 304 306 307 306 307 307 308 309 309 308 308 307 306 306 306 307 307 309 314 315 310 309 313 313 312 314 315 314 313 314 318 319 318 319 317 315 314 312 310 313 312 308 312 316 313 311 311 309 309 309 307 307 306 305 304 304 305 305 305 306 306 307 308
310 312 314 316 318 318 318 318 318 317 316 316 316 317 315 309 306 306 305 305 304 303 304 304 303 304 304 305 306 307 307 308 308 308 308 308 307 306 306 307 309 308 309 311 311 309 308 313 314 312 314 317 317 314 313 315 315 312 312 314 313 312 311 310 311 311 308 310 316 314 312 310 307 308 308 306 307 307 306 305 304 304 305 305 306 307 308 309
309 310 311 313 316 317 318 317 317 317 315 315 315 315 314 311 307 305 304 305 305 304 304 303 303 303 303 304 305 306 307 308 308 308 308 307 306 306 306 309 311 311 310 308 309 310 310 312 313 311 314 317 318 316 313 313 314 313 312 313 313 312 313 313 311 309 310 311 315 315 311 309 308 307 307 307 307 307 305 306 306 305 305 306 307 308 309 309
308 308 309 311 313 316 317 317 317 316 315 315 315 315 314 312 308 305 304 304 304 304 303 304 303 303 303 304 304 305 306 308 307 307 307 307 305 305 306 307 310 313 313 311 310 312 312 315 313 309 313 316 315 315 313 312 313 314 315 313 313 312 313 317 315 310 311 311 312 314 310 308 308 309 313 309 305 307 307 307 307 306 307 308 308 309 309 310
309 309 308 309 311 314 316 317 316 315 315 315 315 315 313 310 307 305 304 304 304 303 303 304 303 303 304 305 305 305 306 306 307 307 307 307 305 306 306 306 309 312 312 311 311 311 313 315 311 310 314 316 315 314 312 311 312 314 314 312 312 313 312 316 315 310 311 310 307 310 312 315 315 318 326 316 306 309 309 308 309 308 308 309 308 310 310 310
308 308 308 308 309 312 315 316 315 315 315 315 315 314 312 307 304 303 303 305 306 305 304 304 303 303 303 303 305 306 306 306 307 306 307 307 306 307 307 306 308 311 310 311 311 310 311 310 310 314 314 314 316 316 313 312 313 315 316 312 311 315 314 314 313 310 313 316 309 308 315 323 323 319 321 315 309 312 310 310 312 309 309 309 308 310 310 310
306 307 308 308 308 311 314 314 314 315 314 314 315 314 311 306 304 305 305 306 309 307 305 306 305 305 304 303 304 305 305 307 307 306 307 307 307 307 308 308 307 308 311 312 311 311 313 309 310 316 314 313 316 315 314 312 312 315 315 311 311 316 315 313 312 309 314 319 310 307 314 319 318 314 313 312 312 314 313 315 314 308 309 310 309 310 310 309
305 306 307 308 308 310 313 314 314 314 314 314 315 313 310 305 305 307 306 310 314 309 307 307 306 306 306 305 305 304 306 308 307 307 307 307 307 307 309 310 308 308 310 311 309 311 314 312 311 314 314 315 315 314 314 311 314 317 312 310 313 314 313 314 312 309 311 314 310 308 311 314 316 314 312 311 313 316 317 318 315 308 308 309 309 310 310 309
304 305 306 307 308 309 311 313 313 314 314 314 314 312 308 305 306 306 308 316 319 311 308 307 305 307 306 306 306 305 306 308 309 309 307 307 307 307 310 311 310 312 312 310 309 310 313 316 314 313 313 314 314 316 314 311 314 317 309 309 312 312 313 313 312 312 310 311 315 313 308 312 319 317 313 310 311 316 319 320 318 311 307 308 309 309 309 309
303 304 305 306 308 309 310 312 313 314 314 314 313 310 307 306 306 306 309 316 317 311 309 307 306 307 306 306 305 305 306 306 308 309 307 307 307 307 309 309 309 313 312 308 309 311 311 311 310 312 314 314 314 313 310 311 313 310 307 310 311 310 312 311 312 314 312 313 318 316 309 312 321 322 317 312 313 318 320 320 316 309 306 309 310 309 309 309
302 303 304 305 306 308 309 311 312 313 313 313 311 308 307 307 307 308 311 314 313 310 308 307 308 306 305 306 305 306 307 306 307 307 306 307 307 307 308 308 308 313 313 310 311 312 306 303 306 310 311 310 312 309 304 309 311 306 309 313 311 310 310 310 311 311 312 318 319 313 308 309 316 323 321 315 315 321 321 317 313 309 307 308 309 309 309 309
302 302 302 303 304 306 309 310 311 312 312 312 309 306 307 307 307 311 314 313 313 313 309 309 309 307 307 308 307 307 309 307 306 307 308 307 307 307 307 308 309 311 313 313 312 311 306 305 308 309 305 305 310 309 305 306 306 307 313 315 312 313 312 312 313 310 313 323 319 308 306 308 313 321 322 317 314 315 317 317 316 315 309 307 309 309 308 307
301 301 301 302 303 304 306 309 310 312 312 309 306 306 308 308 308 312 313 313 317 316 310 308 309 308 307 308 309 309 309 309 306 306 310 309 308 309 308 309 310 310 312 312 312 312 311 311 310 307 304 305 311 312 308 306 306 308 313 314 312 315 315 315 317 316 316 318 311 305 307 308 311 314 314 313 311 310 311 310 312 313 308 306 309 308 307 305
299 299 300 301 302 303 305 307 309 311 310 307 305 306 309 310 311 312 311 314 318 314 309 310 310 310 308 308 311 310 308 309 308 307 309 309 308 308 308 309 310 311 312 312 311 311 313 312 309 308 307 306 309 311 311 310 307 307 311 315 315 315 316 318 319 317 317 315 308 303 307 310 313 315 313 312 310 308 307 305 305 307 307 308 309 307 306 305
297 297 298 300 301 302 303 306 308 310 309 305 304 307 308 311 314 313 311 313 314 310 308 311 312 310 308 310 313 311 308 310 310 309 309 308 309 309 309 309 308 309 312 312 311 311 313 313 311 310 310 307 307 309 313 313 307 306 312 315 316 319 321 322 322 321 322 318 308 303 309 317 321 321 317 314 309 304 303 304 304 306 308 309 308 306 305 305
296 296 297 299 300 301 303 305 306 309 308 304 304 307 309 313 315 314 312 310 310 309 308 311 312 311 310 312 313 312 309 310 311 310 309 309 310 311 310 309 307 308 310 311 311 310 311 314 312 308 306 306 307 308 309 311 308 308 310 311 313 318 322 318 315 317 318 315 310 308 314 320 319 317 314 311 309 305 304 305 303 305 307 307 307 306 305 304
295 296 297 298 299 300 302 304 306 308 307 304 305 307 309 312 313 314 313 309 309 311 310 312 312 311 311 312 313 311 308 309 310 309 309 309 309 311 311 310 308 307 308 309 312 312 311 313 310 305 304 304 306 307 306 308 311 308 307 311 311 312 319 318 312 309 309 313 314 311 315 318 315 316 317 312 311 310 308 308 306 304 305 305 305 305 304 304
295 296 296 297 300 302 302 304 306 307 305 304 306 308 309 310 311 314 313 308 309 310 312 314 313 312 313 313 313 312 309 309 310 310 310 310 310 311 310 309 308 307 308 308 311 316 315 313 308 306 308 305 302 305 305 305 307 309 310 313 309 308 316 319 315 313 311 314 316 312 315 321 317 318 323 318 315 313 311 311 309 305 302 302 304 305 304 304
295 295 295 299 302 303 303 304 306 306 304 304 307 309 309 309 309 311 310 307 307 309 311 315 314 313 313 313 314 315 312 311 311 311 312 313 313 312 310 309 309 307 307 307 310 315 315 313 309 304 306 306 302 305 309 304 303 307 309 308 308 312 315 314 314 317 315 316 320 315 313 317 317 319 323 321 319 318 311 308 310 309 304 300 303 305 304 303
295 295 296 299 302 301 302 305 306 305 304 304 307 309 309 309 308 308 307 306 308 310 311 313 315 313 311 311 314 314 312 312 313 311 311 313 313 312 310 310 310 308 306 306 309 311 312 314 312 304 303 307 306 307 310 308 304 305 305 304 307 312 315 314 314 316 316 316 320 319 314 317 320 319 323 325 326 323 314 309 311 311 304 301 304 306 304 303
295 296 296 299 300 298 301 304 304 303 303 305 306 308 309 309 308 307 307 307 307 309 311 312 314 313 311 309 310 311 311 312 313 311 312 314 314 313 311 311 312 310 307 306 308 310 311 313 313 306 302 306 309 308 309 309 307 306 306 307 307 306 310 314 312 313 318 319 319 319 317 321 320 317 322 325 327 326 316 312 313 308 302 303 306 306 304 303
295 296 297 298 297 296 299 302 301 301 302 304 305 306 307 308 307 306 307 306 305 306 309 311 311 312 311 309 309 309 309 311 311 311 312 314 314 312 310 310 312 310 307 307 309 310 311 313 314 310 306 308 310 307 305 308 308 306 307 309 308 307 310 314 311 310 312 315 317 317 316 318 318 317 319 318 322 326 318 313 315 306 301 305 307 305 304 303
294 296 297 296 296 297 300 301 300 301 301 303 303 304 304 305 306 306 305 305 304 304 306 308 309 310 310 310 310 309 308 309 310 310 312 312 311 311 310 307 307 308 309 309 307 307 311 315 315 313 309 308 306 302 301 303 305 305 306 308 309 309 311 315 314 312 310 310 311 313 313 314 315 316 316 313 316 319 310 308 312 306 302 307 307 304 304 303
294 295 295 296 297 299 300 300 301 301 301 302 302 302 302 302 303 304 304 304 303 303 305 306 307 308 309 309 309 308 308 309 309 309 311 310 309 310 309 306 306 307 309 310 308 306 310 313 313 312 310 306 303 301 299 300 302 305 306 306 307 308 310 313 314 313 312 311 310 312 312 313 314 314 315 313 311 309 303 303 306 303 303 306 306 304 304 302
293 294 294 296 298 299 300 300 301 301 301 302 301 300 300 301 301 302 304 304 303 304 306 306 306 308 309 309 308 308 309 310 310 309 308 308 308 308 306 305 307 308 309 310 309 309 310 312 312 311 312 310 306 304 302 301 302 306 308 306 305 306 307 308 309 308 310 312 314 315 313 312 315 315 315 314 312 313 310 303 301 302 304 306 305 304 303 302
293 293 294 295 297 299 300 300 300 301 300 300 299 298 299 300 302 302 303 303 302 303 304 305 305 306 306 307 307 308 309 310 310 309 307 307 307 305 303 303 305 307 307 305 306 309 312 315 313 310 312 313 311 311 310 306 305 305 308 307 305 305 306 307 309 308 308 310 312 313 311 311 314 314 313 314 314 316 312 302 300 303 304 305 305 304 303 301
293 294 294 295 296 298 299 299 299 298 297 296 296 297 299 300 301 301 301 302 302 302 302 303 304 304 305 306 307 307 308 308 308 309 308 307 307 306 302 300 302 303 303 302 303 306 311 314 313 311 313 312 312 314 313 310 309 308 308 307 306 305 305 308 310 309 309 311 310 310 311 312 313 312 312 314 314 314 312 306 302 302 303 305 305 304 304 302
293 294 294 294 295 296 297 297 296 294 294 295 296 297 298 298 298 299 301 302 302 302 302 303 304 305 306 306 307 307 307 307 307 307 308 306 308 308 302 299 301 301 302 302 302 304 308 311 312 313 313 311 311 313 312 310 309 310 309 307 306 305 304 306 308 308 311 312 310 310 311 311 311 310 310 311 312 313 313 309 304 302 304 306 305 304 304 302
293 293 293 293 294 295 295 295 293 292 293 295 296 297 297 297 297 299 300 301 301 301 302 303 303 305 306 306 307 307 307 308 307 307 308 307 307 308 304 302 303 302 302 302 302 306 310 309 311 312 311 311 309 308 310 309 308 308 309 308 307 305 305 306 307 308 310 311 310 313 315 312 310 310 309 309 311 312 312 309 306 305 305 305 304 304 303 302
292 292 293 293 294 294 294 293 292 293 293 294 295 296 296 296 297 298 299 299 298 298 299 301 303 303 303 304 305 307 307 308 308 307 307 307 307 307 307 306 304 301 301 302 303 306 309 309 311 310 309 311 309 307 307 308 307 307 307 307 306 305 305 306 306 307 308 309 310 313 314 311 308 308 308 308 307 308 307 306 305 305 305 305 304 304 303 303
291 292 293 293 293 293 293 293 292 293 294 294 294 295 296 296 297 297 297 297 296 296 297 300 300 299 299 299 301 304 305 307 308 308 308 307 307 307 307 307 307 303 301 303 304 304 305 309 310 307 307 309 309 308 307 307 307 308 307 307 306 305 304 305 305 306 307 308 308 309 311 309 307 306 307 307 306 305 306 306 303 303 305 305 305 304 304 304
290 291 291 291 292 293 293 293 293 293 293 293 294 295 295 295 296 295 295 295 295 296 297 298 297 297 297 297 297 299 302 304 304 305 306 306 307 307 307 307 308 306 303 303 304 303 305 307 308 306 307 308 308 309 307 305 305 305 305 306 306 305 305 304 304 305 306 307 307 308 309 308 307 307 307 308 307 307 309 307 303 302 305 305 304 304 304 304
289 290 290 290 291 292 292 292 292 292 292 292 293 294 293 293 294 294 294 295 296 296 296 297 297 297 296 296 297 298 300 301 301 301 302 302 303 304 304 304 305 306 305 303 303 303 304 306 307 306 307 308 308 308 306 304 305 305 305 305 304 303 303 304 304 304 305 306 307 308 308 308 308 307 307 308 308 307 307 305 302 301 303 304 304 304 305 305
Wind_Speed
12 12 12 11 11 12 12 12 12 12 12 12 13 13 13 13 13 13 13 13 13 12 12 13 13 13 13 15 15 15 15 14 11 12 14 11 8 8 7 6 5 6 7 7 5 3 4 6 5 3 1 2 3 2 2 1 2 3 3 3 2 3 4 5 5 5 4 2 3 5 4 4 5 6 8 9 12 16 18 22 23 22 24 26 26 23 20 17
13 13 13 13 12 12 13 13 13 13 13 13 13 13 13 13 14 14 14 14 13 13 13 13 13 13 14 15 15 16 17 17 17 15 10 6 6 6 6 5 5 6 7 7 6 4 5 6 5 3 1 3 4 4 3 3 4 4 2 2 4 5 5 4 5 5 3 3 5 6 4 5 6 5 5 6 9 10 12 17 19 22 25 22 24 23 20 18
14 13 13 14 14 14 14 14 14 14 14 14 13 13 14 14 14 14 14 14 14 14 13 14 14 14 14 15 15 16 17 19 18 8 1 1 3 4 5 6 6 6 6 7 7 5 4 5 5 3 2 3 5 5 4 4 4 3 3 2 6 6 4 5 6 6 6 4 3 5 5 6 9 9 5 5 9 8 10 15 12 16 19 13 15 18 18 18
15 14 14 14 15 15 15 15 15 15 15 14 14 13 14 14 14 14 15 15 15 14 14 14 14 14 14 15 15 15 17 20 11 3 2 4 4 5 6 6 7 7 7 7 7 5 4 4 3 2 2 2 4 5 4 6 5 3 5 5 6 4 2 6 7 7 7 5 5 6 4 7 11 10 8 5 7 7 14 19 15 14 12 8 11 11 14 16
16 16 16 15 15 15 15 16 16 16 16 15 15 14 14 14 14 15 15 15 15 15 14 14 14 14 14 14 14 14 13 11 1 3 4 8 7 7 6 7 8 7 7 7 7 6 6 5 3 2 2 1 3 3 4 8 7 3 6 9 8 4 3 7 7 7 7 6 7 6 4 7 7 8 12 10 5 11 17 15 13 12 10 10 12 10 12 15
18 17 16 16 16 16 16 16 16 16 17 16 16 16 15 15 14 15 15 15 15 15 15 14 14 14 14 14 14 13 8 4 5 7 12 11 9 8 7 9 8 8 8 7 7 7 7 7 5 3 3 1 4 5 4 8 8 3 6 9 10 9 6 7 6 7 8 7 7 6 8 8 4 8 14 15 19 26 28 20 17 16 12 11 14 14 15 17
19 19 18 17 16 16 16 16 17 17 17 17 17 17 16 16 15 14 14 14 15 15 15 15 15 15 14 14 14 12 11 12 13 12 13 11 9 8 8 9 9 9 8 8 8 7 7 7 6 4 3 1 4 5 4 7 9 5 5 5 7 9 9 9 8 9 9 9 10 9 11 10 6 8 9 17 32 36 33 28 26 23 19 17 19 21 23 24
19 19 19 18 17 16 16 16 17 17 17 17 18 18 17 17 16 15 14 14 15 15 15 15 14 15 14 14 13 11 15 17 14 11 10 9 9 8 8 9 9 10 9 8 8 8 7 7 7 5 3 2 3 3 4 4 4 6 7 6 5 8 10 12 11 13 13 13 13 9 12 14 12 10 9 25 40 36 30 26 24 23 23 25 26 27 27 27
19 19 19 19 18 17 16 16 17 17 18 18 18 19 18 18 17 16 15 15 15 15 15 15 14 15 14 14 11 9 15 16 11 10 10 9 9 8 9 10 10 10 10 9 8 9 8 8 8 7 4 4 4 2 5 5 3 7 8 6 6 10 14 14 15 18 18 17 13 7 12 15 11 9 13 32 36 24 20 16 13 15 18 21 22 22 22 22
20 19 19 19 19 19 18 17 17 17 18 18 19 19 19 19 18 17 16 16 15 15 16 15 15 15 14 15 8 5 14 14 11 12 11 10 10 9 11 11 11 11 11 10 9 9 9 8 8 8 6 4 4 3 5 6 3 4 5 9 12 16 18 17 17 19 14 14 13 10 11 11 7 2 10 29 25 14 14 13 12 13 15 16 15 16 17 18
21 20 19 20 20 20 19 18 17 17 18 19 19 20 20 20 19 19 18 16 16 16 16 16 15 15 15 16 12 10 15 14 12 14 12 13 12 12 14 13 13 13 11 10 9 9 9 9 8 7 5 2 2 3 6 6 5 5 6 10 13 14 17 17 16 16 10 7 10 11 9 9 4 4 16 32 25 16 18 16 16 16 16 16 16 16 17 18
22 22 21 20 20 21 21 20 19 18 18 18 19 20 20 20 19 19 20 18 17 17 16 16 15 16 15 18 22 21 20 19 18 19 18 18 17 17 16 15 14 13 12 10 9 9 9 9 9 8 5 3 2 1 4 5 4 5 4 6 9 8 11 11 7 7 8 4 5 5 6 8 6 12 30 35 25 20 20 20 20 20 20 19 19 19 19 19
22 23 23 22 21 21 22 22 21 20 19 19 19 20 20 20 18 19 20 18 18 17 17 16 16 16 14 18 24 21 18 19 20 20 20 19 19 18 17 16 15 13 13 10 9 9 9 9 9 9 8 4 2 1 3 3 2 4 2 1 6 7 6 5 1 4 8 4 5 5 4 8 8 19 33 27 22 21 19 22 23 21 21 20 20 21 21 21
23 23 23 23 22 21 22 23 23 22 21 20 20 20 20 19 18 19 20 19 18 17 17 16 15 15 14 19 23 21 21 22 22 22 20 20 19 18 18 16 14 13 12 10 9 8 8 8 7 8 8 6 3 3 4 4 1 1 1 1 3 3 5 5 0 7 6 3 7 6 3 11 8 16 25 21 20 20 19 24 24 22 22 21 22 23 24 23
25 24 23 23 24 23 22 22 24 24 23 22 21 21 21 19 18 19 20 19 17 17 16 14 14 13 14 21 23 20 22 22 23 22 19 20 19 17 17 15 14 13 11 10 9 8 7 6 7 5 5 6 3 1 3 4 2 1 1 3 2 3 5 8 2 8 5 2 7 6 3 11 10 14 21 17 16 17 20 25 24 24 23 22 24 25 27 26
26 25 24 23 23 24 24 23 23 24 25 25 23 22 22 20 19 20 20 19 16 16 14 12 13 11 9 16 19 17 20 21 19 18 17 18 18 17 15 13 13 11 10 9 8 7 6 5 5 4 2 3 2 3 3 4 4 2 2 4 3 4 4 6 3 5 4 3 4 5 4 9 8 8 9 6 8 13 18 24 25 25 25 25 27 29 30 29
25 25 24 24 23 24 25 24 23 23 25 26 25 24 24 22 21 21 20 17 15 14 13 10 7 8 11 15 16 17 20 19 17 17 16 16 16 17 15 13 12 11 9 7 7 6 5 4 3 3 2 1 2 4 2 4 5 3 1 3 5 4 3 4 5 2 3 3 4 5 6 13 14 11 14 15 15 15 18 25 28 27 28 30 30 31 32 32
24 25 25 24 23 23 25 26 25 23 24 26 26 26 25 24 21 21 19 15 12 9 10 11 6 2 13 19 21 21 18 15 16 16 15 14 15 15 13 12 11 10 7 5 6 7 6 3 2 1 1 1 2 4 3 6 5 4 4 4 5 4 5 6 6 2 4 3 5 4 8 17 20 16 23 28 21 19 25 29 30 31 31 32 31 31 31 32
23 24 24 24 24 23 24 26 26 24 24 25 26 27 26 23 19 18 17 15 14 8 5 13 18 7 5 10 15 17 14 12 12 13 13 14 15 14 13 11 9 9 5 3 4 7 8 3 2 2 2 4 7 8 10 10 7 6 6 5 5 5 6 6 5 5 5 3 6 7 11 17 20 17 20 26 18 18 27 28 28 30 29 30 30 31 30 29
23 23 23 24 24 24 23 24 26 25 24 24 26 25 21 15 10 10 12 18 26 24 17 16 24 21 10 6 9 10 10 9 10 11 12 14 15 14 12 10 7 6 4 4 4 5 8 4 4 8 8 9 12 13 11 6 5 4 3 4 5 5 8 4 2 4 4 3 7 8 11 16 19 18 19 26 20 14 21 21 22 26 27 29 29 29 27 25
23 23 23 23 22 23 23 23 26 25 23 23 24 22 15 9 5 6 10 17 27 31 31 28 26 25 20 16 13 12 11 10 11 14 13 15 16 11 12 12 5 3 5 4 4 3 6 5 11 13 10 10 9 10 8 4 4 3 4 5 5 4 8 5 1 3 2 2 5 4 9 17 19 17 19 22 16 13 16 14 19 24 24 27 27 26 23 20
23 23 22 23 21 22 21 21 26 27 24 22 22 19 15 12 10 10 10 16 25 29 32 35 34 33 31 25 21 18 14 10 13 18 17 19 19 14 12 12 5 4 5 4 4 2 4 7 16 12 7 5 2 5 8 6 5 3 3 2 4 4 6 6 2 2 0 2 4 5 8 17 19 16 18 17 11 15 18 15 19 21 20 22 21 20 18 17
19 21 21 22 21 20 19 20 25 28 24 23 22 18 16 14 12 12 11 13 23 29 31 35 38 41 39 34 31 27 19 15 17 22 23 23 24 19 14 11 6 4 4 6 7 5 5 10 13 7 8 8 3 4 8 5 3 4 4 3 5 3 1 5 3 3 2 2 4 6 7 14 15 12 13 12 8 12 14 13 16 17 17 16 13 13 14 16
18 18 19 20 20 19 17 19 25 29 25 25 23 16 14 14 10 10 12 9 13 19 27 34 36 40 41 36 33 31 27 25 21 21 27 30 26 17 13 10 6 4 6 11 11 10 10 8 3 7 9 9 5 4 7 6 4 4 6 6 6 4 4 5 3 4 3 2 3 4 6 9 8 6 7 6 4 7 7 7 10 14 15 14 12 12 13 15
18 18 17 17 18 18 15 18 28 30 26 26 23 15 11 10 5 5 7 6 8 9 13 21 25 30 35 32 29 26 24 26 25 23 28 35 31 15 8 11 8 6 10 9 8 9 12 7 9 9 6 8 7 5 7 8 5 4 6 11 9 5 5 2 4 5 4 4 3 3 5 7 4 5 8 6 5 7 6 5 8 12 13 13 13 12 13 14
19 18 17 16 16 15 14 20 28 28 26 27 23 15 10 4 3 3 1 2 7 3 3 8 11 11 16 22 26 19 9 13 21 27 27 31 34 19 5 7 7 6 8 6 4 5 5 4 8 8 7 8 6 6 7 8 5 3 5 8 7 6 6 3 2 2 1 4 4 3 1 6 7 7 9 5 6 9 8 5 8 11 12 13 13 13 14 14
19 18 18 16 14 13 16 21 24 24 23 23 20 15 8 5 7 4 3 2 6 2 6 6 6 5 6 14 25 19 3 4 11 20 26 27 31 22 8 5 5 4 5 5 3 3 2 4 5 6 7 7 6 6 6 9 7 4 3 5 8 7 6 5 4 3 2 4 4 2 3 3 7 8 7 4 6 9 9 7 8 10 13 13 13 14 15 16
20 19 18 17 15 14 18 22 24 24 23 19 15 12 9 10 9 6 4 1 3 3 5 3 3 2 3 14 25 15 2 4 7 9 19 26 26 17 9 7 6 4 6 7 6 3 4 6 8 8 6 6 6 4 8 11 5 4 3 6 6 6 5 5 5 2 1 3 4 3 2 1 6 8 5 3 5 8 8 9 8 10 14 14 14 16 16 17
20 20 19 19 17 17 19 24 28 27 25 20 14 11 12 13 12 7 1 3 2 2 2 2 2 2 5 14 17 4 5 4 2 4 11 18 20 9 3 6 5 3 5 6 7 3 2 5 9 9 7 7 4 1 7 11 4 4 6 6 5 5 4 4 4 3 2 2 5 5 4 2 6 7 4 1 3 6 8 8 7 10 14 16 17 18 18 18
20 20 20 21 20 18 18 24 30 30 25 20 16 16 18 15 10 5 3 3 2 2 1 2 1 2 5 8 3 4 3 4 4 6 6 7 12 5 0 4 3 2 3 4 4 3 2 1 3 5 4 5 4 3 2 6 6 8 7 6 5 4 4 3 2 3 2 2 6 5 4 2 4 6 4 4 4 6 5 5 6 8 12 18 20 20 20 20
20 20 20 22 22 19 20 25 28 31 28 20 19 23 20 9 4 3 5 2 3 0 2 3 1 2 5 5 1 3 3 3 3 5 3 1 5 3 0 3 2 2 2 6 4 2 2 1 1 3 4 6 6 5 3 4 6 7 5 4 3 3 3 3 4 3 1 5 5 2 1 2 4 7 5 5 5 5 6 5 7 8 11 19 23 22 22 21
20 21 22 22 23 22 24 26 25 29 30 22 25 27 15 3 2 4 4 3 2 1 1 1 1 3 3 2 1 1 1 1 0 2 2 2 3 5 4 5 4 2 3 7 4 1 2 4 3 1 4 7 6 5 3 3 3 4 4 5 3 2 3 2 3 0 3 5 2 1 1 2 7 10 10 11 11 9 8 8 10 11 14 21 25 24 22 19
20 22 23 23 23 23 24 24 24 29 28 26 29 21 8 2 6 8 6 2 2 2 2 3 3 4 4 2 1 3 2 2 3 2 1 2 2 4 6 5 4 1 2 5 4 2 3 3 3 3 3 8 10 6 3 2 3 5 5 5 4 2 2 4 3 2 4 3 1 1 2 3 5 7 11 16 15 10 9 13 16 17 21 25 26 24 21 18
21 22 23 23 24 23 23 23 25 29 28 32 27 11 4 6 6 8 11 7 3 1 2 4 4 4 3 2 3 4 2 2 5 5 2 3 3 3 5 7 7 1 2 1 3 5 5 5 5 6 3 8 12 6 4 6 6 5 4 5 5 5 4 5 4 4 4 2 2 2 2 4 4 4 7 10 10 9 9 16 20 20 21 23 22 21 19 17
24 23 21 21 22 21 22 22 24 29 32 34 18 5 7 8 4 4 8 8 5 3 4 3 5 3 2 2 4 4 4 4 3 5 3 4 4 4 4 7 9 5 2 3 2 3 6 6 3 2 0 7 9 2 4 6 4 3 3 4 3 4 4 2 3 5 3 1 3 2 4 5 4 6 9 6 8 9 8 12 15 16 17 17 18 20 19 17
26 22 20 19 18 18 19 19 22 30 36 30 9 6 9 7 3 2 3 6 6 5 7 3 4 4 3 2 3 4 4 4 2 3 3 4 4 5 5 6 11 12 9 6 2 2 4 4 2 1 2 3 5 2 3 3 3 3 3 4 5 3 6 3 2 1 3 2 4 3 4 6 4 7 7 3 4 7 5 6 9 11 13 15 18 20 19 17
26 24 23 19 15 14 15 16 19 31 39 24 6 7 7 5 5 4 2 2 3 4 8 4 3 6 4 3 3 4 3 2 3 3 2 3 4 6 7 6 10 16 17 12 5 3 4 3 2 1 0 2 2 3 3 0 3 5 3 5 3 2 4 3 1 2 3 4 5 2 6 6 3 5 5 5 3 6 5 5 5 7 10 14 19 21 18 17
25 24 23 17 13 13 11 12 16 33 34 14 6 8 5 6 5 4 2 4 2 2 4 5 5 6 6 5 3 4 5 3 4 4 3 3 4 5 7 6 9 17 22 16 6 3 4 3 3 1 1 2 1 3 1 1 2 4 3 2 2 3 2 2 2 2 1 4 5 3 4 4 5 5 4 5 7 8 8 7 6 8 9 14 20 21 18 17
22 19 16 13 13 15 13 10 22 35 23 6 7 9 5 5 6 5 5 3 2 4 4 5 4 2 4 7 5 4 6 6 5 4 3 4 4 5 6 6 7 12 18 18 8 4 2 3 3 1 1 1 1 2 4 4 2 1 1 2 1 2 4 3 3 3 3 3 3 4 2 3 7 7 6 9 10 9 9 8 10 11 12 18 22 21 20 20
18 11 10 12 15 18 13 12 26 23 9 3 6 5 2 4 6 11 14 9 3 3 4 3 4 4 4 5 5 4 5 7 7 5 4 4 4 4 5 6 4 4 11 16 10 3 1 3 3 0 1 2 2 4 7 8 7 4 3 3 2 1 2 1 2 2 3 3 2 3 5 5 6 5 8 11 10 10 11 11 11 11 15 24 25 21 22 23
16 5 7 14 17 17 8 13 14 5 3 4 4 3 4 5 4 7 18 20 9 4 3 3 6 7 6 5 5 4 4 5 6 5 4 4 5 5 4 6 6 5 6 8 8 5 3 4 3 2 2 4 4 4 3 5 6 6 4 5 5 4 4 2 4 2 2 3 4 3 7 7 4 4 8 10 8 8 10 10 10 11 19 26 25 21 21 23
13 4 8 15 15 10 2 7 4 5 4 3 6 4 6 9 6 5 9 17 12 4 2 2 4 7 6 6 6 5 5 3 4 5 4 6 9 7 4 5 8 9 8 5 7 6 4 2 2 3 4 5 3 2 2 2 1 3 2 2 3 3 3 4 5 4 2 3 2 2 6 6 2 3 6 7 6 6 9 10 8 12 24 27 22 20 20 21
13 13 17 15 9 2 5 4 4 5 4 8 11 8 10 8 4 7 7 8 7 4 3 3 3 6 6 5 4 4 4 3 5 7 6 6 9 9 8 8 10 9 6 3 3 3 4 2 3 3 3 1 1 2 2 2 2 1 3 4 5 5 3 4 4 3 3 4 3 1 7 4 1 2 4 3 3 3 7 13 12 13 23 25 20 19 20 21
18 21 19 11 3 6 7 2 4 5 5 9 9 9 11 5 3 6 6 4 4 2 4 5 5 7 6 6 6 7 7 5 6 10 10 8 7 9 12 15 14 10 6 3 3 7 6 3 4 4 3 3 2 1 1 1 1 3 4 6 9 8 4 1 1 2 3 7 9 6 10 5 1 4 3 1 3 3 6 13 16 16 20 23 21 20 20 21
15 14 12 10 6 10 11 4 2 3 3 5 7 9 10 5 4 7 7 7 9 6 4 6 6 6 5 4 5 6 9 9 7 8 9 9 7 6 11 18 17 11 6 3 2 5 6 4 5 6 7 8 5 4 5 3 2 3 3 6 11 13 12 5 2 4 6 6 10 10 11 7 2 4 4 3 4 5 5 10 14 17 19 21 20 21 22 22
9 5 6 9 7 8 12 8 2 3 3 5 7 6 6 5 5 9 8 9 12 10 7 8 7 5 3 3 6 7 10 12 9 4 5 7 7 4 7 13 14 8 4 3 2 1 2 3 7 9 11 11 7 6 5 4 5 5 7 11 13 15 17 9 2 6 6 3 8 11 10 12 11 10 9 7 6 7 7 7 11 16 20 21 20 21 23 24
4 2 3 6 6 6 8 6 6 6 3 5 4 4 5 7 8 8 5 5 8 8 6 5 4 3 3 6 8 9 9 11 10 8 9 9 8 5 3 5 7 8 5 1 1 3 1 4 8 10 13 12 9 7 4 3 7 10 11 14 14 14 15 13 12 11 7 4 11 7 7 17 19 16 17 11 8 8 8 8 11 17 23 24 22 22 24 26
2 4 7 7 4 3 4 7 11 10 7 5 2 4 8 9 7 7 5 4 8 9 5 3 5 8 10 10 9 8 8 9 9 10 12 12 11 8 6 3 4 8 7 2 0 4 2 4 6 8 12 14 12 9 6 5 7 7 9 13 14 14 17 19 22 17 11 11 13 9 14 23 19 16 21 14 8 10 11 14 18 21 22 22 21 22 25 28
5 6 10 9 4 5 9 13 14 11 7 5 3 4 7 9 8 6 3 4 7 8 7 6 8 10 11 11 11 9 9 8 9 11 12 14 13 11 9 7 4 5 6 4 2 2 3 3 4 6 10 14 15 11 8 8 8 9 10 11 10 14 19 23 25 20 17 20 14 4 12 20 14 16 19 9 6 10 13 17 20 20 19 19 20 24 27 30
6 6 9 10 8 9 12 11 8 6 5 5 4 5 6 8 9 7 4 5 7 8 7 7 11 14 13 13 13 11 11 12 12 11 11 14 13 9 9 8 5 2 2 3 2 2 3 4 2 2 5 12 16 14 10 10 11 13 13 10 10 13 17 20 19 15 15 17 13 11 17 18 13 14 13 8 6 10 11 13 16 20 22 20 22 25 27 30
9 10 11 10 7 7 8 6 3 3 4 2 3 5 5 6 8 10 9 8 9 8 6 9 13 14 13 14 13 14 15 15 17 19 15 13 11 8 8 8 8 5 3 3 2 3 5 4 1 3 5 12 14 14 11 7 7 11 13 13 15 15 12 12 12 12 14 14 13 15 19 17 12 8 8 11 9 9 10 11 13 19 23 23 24 28 30 32
13 15 14 8 4 4 6 5 3 3 4 2 3 5 6 8 10 11 10 7 7 10 12 13 13 12 11 14 14 16 20 21 24 31 31 25 21 16 10 4 6 7 5 4 3 3 6 6 4 5 8 13 12 9 6 1 4 12 14 15 19 16 11 9 11 14 16 14 13 15 16 13 10 8 11 15 12 9 11 12 14 18 24 27 30 32 33 34
Wind_Direction
301 295 293 292 293 294 296 298 299 300 299 296 294 292 288 286 285 285 287 287 290 293 296 298 301 306 308 309 311 315 322 322 310 293 290 288 264 270 291 289 302 315 322 324 323 308 250 231 236 246 348 122 173 215 191 223 193 158 114 133 215 203 196 195 194 198 175 236 232 202 201 203 245 244 253 273 259 255 260 257 253 251 249 253 261 265 267 264
303 299 296 294 293 292 293 294 297 299 299 298 297 294 292 290 287 285 286 286 288 290 292 295 298 301 304 307 310 313 317 319 314 302 292 274 243 263 291 296 306 306 316 321 318 305 256 242 244 245 244 152 181 206 201 217 191 171 123 154 224 203 205 206 203 210 188 237 218 208 235 229 244 260 271 276 262 264 269 264 256 256 260 260 260 260 259 251
307 301 299 295 294 292 291 291 293 297 299 299 297 296 296 293 291 288 287 286 286 288 290 292 294 297 301 303 308 314 317 319 318 306 262 302 258 276 300 309 310 299 306 317 314 298 252 242 245 228 186 151 179 196 198 205 204 207 152 194 245 219 234 249 224 222 221 242 220 220 248 248 261 272 270 262 279 280 256 260 249 252 270 270 256 252 247 241
318 307 301 297 295 293 291 291 292 294 297 299 298 298 297 296 295 292 289 288 288 288 289 289 291 294 297 301 307 314 320 322 319 152 112 344 320 300 304 309 307 301 301 309 309 290 255 236 232 207 172 138 171 187 203 203 204 199 164 202 233 186 244 253 228 228 228 235 242 242 257 269 271 264 246 251 303 280 248 259 253 252 273 256 246 244 229 230
336 322 310 302 298 295 293 293 293 293 294 296 298 299 299 299 296 295 293 291 290 290 289 288 289 292 294 298 303 311 328 332 289 154 311 315 318 309 303 302 303 307 300 300 303 287 261 233 221 207 168 156 157 165 218 205 191 197 217 233 235 195 248 261 239 227 223 224 248 260 270 272 270 252 244 234 237 257 260 271 269 270 273 238 230 228 227 233
348 340 327 314 304 299 296 295 294 292 291 293 296 299 300 299 297 297 295 293 293 292 291 289 288 290 293 295 298 305 313 285 255 289 301 300 304 300 298 299 302 306 300 297 295 278 256 230 226 213 164 196 181 177 217 200 189 219 256 249 248 235 233 263 249 233 232 220 232 258 272 271 274 276 263 235 236 260 270 274 276 278 272 241 219 220 236 244
350 348 342 332 318 306 300 297 295 292 288 288 291 294 297 299 299 298 296 295 292 292 291 290 289 288 291 293 293 294 276 264 278 289 290 289 288 287 293 295 299 302 299 296 285 268 252 231 227 202 159 255 208 203 215 195 190 209 265 263 254 245 236 256 259 252 249 239 247 260 273 270 254 278 283 252 257 268 277 277 275 270 262 250 237 237 246 251
345 348 348 343 334 321 308 300 296 293 289 285 285 287 291 295 297 298 297 293 290 290 289 288 288 286 288 290 290 288 272 272 284 283 280 278 276 285 289 288 295 299 297 293 280 265 253 232 221 200 197 232 194 208 196 193 210 206 242 265 257 257 255 262 263 260 260 263 267 258 259 263 257 269 279 267 271 278 283 283 276 264 255 248 246 248 249 251
335 340 344 346 342 335 323 311 301 295 292 289 286 284 285 289 293 295 293 291 289 286 286 286 285 284 285 283 283 285 274 277 282 273 275 273 273 280 283 284 286 291 293 286 274 259 248 234 222 212 233 222 193 240 179 178 241 209 230 266 274 274 275 277 270 265 265 266 264 246 257 268 269 276 272 268 273 283 282 278 273 263 250 242 243 248 251 253
325 328 334 339 341 340 334 325 312 302 296 292 289 285 283 283 285 289 289 289 287 283 283 282 280 280 280 276 267 266 273 275 274 271 272 269 269 275 281 283 280 285 290 283 271 258 249 245 238 230 248 229 208 249 182 175 241 237 265 285 279 280 284 281 269 266 264 261 247 229 260 273 261 226 266 269 273 280 273 269 271 267 254 245 245 250 252 256
316 319 324 328 333 336 335 332 324 314 303 294 291 288 285 282 281 284 285 284 282 281 279 277 279 275 274 269 241 238 271 273 270 271 269 269 269 272 278 279 280 280 281 281 271 261 254 248 243 236 245 229 228 244 208 211 256 292 319 303 284 289 291 275 263 260 245 250 238 221 261 274 244 175 244 263 271 274 273 272 269 264 256 249 247 250 249 254
306 310 314 319 323 327 330 331 329 324 314 303 295 289 288 285 280 279 279 279 278 278 276 275 275 271 272 267 252 256 273 270 268 268 267 270 268 268 272 274 277 276 275 276 264 259 255 245 238 232 227 208 243 268 225 236 270 298 332 309 294 319 306 272 263 245 204 208 218 195 282 262 192 222 246 260 269 269 270 269 265 259 253 247 247 250 249 256
296 300 305 310 313 317 321 323 326 327 322 314 303 293 289 287 283 276 272 272 272 273 273 272 271 271 271 266 265 271 272 266 264 263 261 264 263 263 267 270 273 271 269 266 259 258 250 244 235 230 228 215 233 248 262 283 284 290 344 303 306 338 313 269 52 153 169 182 180 142 302 258 210 234 249 262 266 262 265 265 261 253 249 248 248 250 252 257
289 291 296 301 305 308 312 315 318 322 323 321 312 300 293 290 285 277 270 268 268 268 268 267 267 267 262 263 271 275 269 265 262 258 258 258 258 260 261 265 267 263 262 259 257 255 245 243 233 230 231 226 241 265 299 341 11 271 331 330 321 322 283 286 138 146 151 191 178 140 273 265 257 250 258 268 262 258 260 262 260 251 248 250 252 253 255 258
285 286 288 291 296 300 304 308 312 315 317 320 317 310 301 292 286 278 271 266 263 262 261 260 260 260 265 268 272 272 267 263 261 262 259 255 254 254 255 258 258 253 251 250 250 247 242 236 225 229 228 221 232 298 319 341 7 21 264 297 319 210 267 302 250 164 161 184 173 150 249 271 272 266 270 269 256 249 247 257 257 250 249 251 257 257 256 260
283 284 283 285 288 292 297 301 306 308 310 313 316 316 311 299 285 275 270 265 261 258 253 251 252 250 269 276 270 265 263 259 261 262 254 249 247 245 247 248 244 239 238 241 241 237 231 224 222 225 207 190 151 96 28 338 329 347 215 256 258 209 276 319 286 201 180 142 185 202 244 277 274 265 270 248 245 246 240 253 255 250 253 254 259 260 257 259
282 281 280 282 283 287 291 294 298 302 304 307 310 314 316 307 287 274 270 262 254 246 240 238 243 249 255 264 263 258 258 259 260 257 250 246 241 239 239 233 228 226 227 227 228 219 207 207 203 221 223 114 118 108 51 298 282 310 260 244 246 216 242 295 303 273 162 161 229 231 238 260 265 268 270 263 263 259 248 255 258 257 258 260 261 261 259 258
280 281 280 279 279 283 288 290 293 296 299 302 303 308 316 312 295 278 269 254 237 229 238 222 180 289 259 244 247 253 258 260 256 251 244 236 230 231 228 223 221 219 211 206 216 197 185 191 155 225 330 74 144 130 177 240 222 223 216 229 269 260 233 245 275 267 147 189 237 237 255 262 268 274 273 271 262 249 251 256 259 260 260 261 260 259 260 259
277 279 281 280 279 279 283 288 289 291 295 297 298 303 312 313 298 278 262 230 203 194 233 208 188 198 252 224 234 247 255 255 247 241 232 224 219 216 214 215 213 203 184 172 206 184 169 134 95 222 226 191 200 183 203 220 192 200 202 196 241 267 258 227 239 244 165 204 247 233 252 266 275 279 278 279 267 240 250 254 254 256 256 256 256 257 259 258
278 277 278 280 281 280 281 285 286 285 288 292 297 304 314 323 308 285 263 230 221 228 244 227 210 217 231 239 238 236 240 238 233 228 219 216 211 206 203 199 198 193 183 171 186 179 161 154 230 227 209 203 211 203 209 209 155 164 168 203 231 243 269 248 223 263 165 200 257 238 256 268 274 279 278 282 280 251 250 253 251 251 251 252 254 256 256 255
283 279 276 278 279 282 281 283 285 281 279 286 295 303 312 328 307 302 301 265 249 246 249 250 239 233 240 250 252 250 243 232 231 225 213 207 200 197 196 186 171 200 212 171 127 142 143 187 240 231 210 208 213 203 203 181 152 181 185 228 258 226 259 275 119 262 173 195 272 279 284 276 274 278 279 283 286 267 256 249 249 251 249 250 250 251 253 250
284 280 280 277 275 281 281 283 284 276 272 278 287 293 299 306 282 278 307 291 274 265 255 253 249 244 243 242 245 251 241 226 230 219 205 197 194 197 187 176 184 198 189 148 113 131 154 231 244 229 179 158 138 171 187 187 179 196 168 194 269 234 264 300 4 343 53 190 277 319 304 282 280 279 278 280 275 270 268 255 251 251 248 247 244 244 245 238
287 282 281 277 275 278 279 283 280 269 265 270 277 287 297 301 282 269 288 292 282 276 263 254 248 244 240 237 239 237 225 224 229 219 209 197 192 198 186 173 201 184 152 182 183 174 192 239 246 209 149 142 119 146 157 163 181 192 167 172 248 233 246 286 311 334 273 212 271 303 295 283 287 287 279 274 261 273 282 272 260 253 247 247 243 241 239 227
293 287 281 278 276 272 276 281 269 260 262 266 270 283 296 294 282 274 282 286 281 276 267 259 250 242 239 238 237 228 222 228 228 220 214 202 187 190 198 186 181 184 198 205 196 201 223 234 191 136 154 160 154 166 156 163 219 230 201 201 233 229 208 239 292 319 299 321 296 297 298 283 289 302 290 288 289 288 297 294 265 243 236 242 246 244 236 226
297 292 285 281 274 268 271 265 256 255 259 261 265 277 286 282 287 289 289 296 279 271 268 255 243 241 238 235 231 220 221 231 229 224 217 206 194 184 195 189 182 215 212 196 194 224 242 219 137 126 163 164 157 194 192 179 210 269 228 213 215 197 183 211 348 356 1 339 300 360 337 287 290 291 270 283 316 301 310 313 261 237 224 227 233 228 221 219
302 297 290 283 273 267 256 245 248 254 254 256 261 267 265 245 63 13 19 338 281 246 156 210 214 226 226 221 211 198 222 240 226 225 221 212 207 196 178 183 191 223 190 162 196 232 251 190 143 140 164 170 182 225 217 175 169 273 251 205 180 134 127 133 59 38 351 277 274 65 79 271 301 288 263 286 318 295 301 302 261 241 219 211 213 211 211 213
308 302 296 287 278 264 245 240 246 246 244 252 256 248 229 150 97 62 62 331 275 175 128 169 170 176 208 205 188 174 217 230 187 211 211 205 205 201 203 192 177 214 160 131 239 235 137 143 144 143 151 169 203 233 212 161 151 238 254 128 128 123 138 152 121 134 221 277 307 30 146 254 297 279 273 323 316 295 291 276 261 242 221 211 210 210 214 218
312 308 301 291 281 264 251 251 250 244 243 248 245 223 180 133 116 93 76 268 265 97 109 155 151 169 169 177 178 168 79 118 133 197 196 191 197 201 223 212 173 198 170 156 226 256 114 166 183 163 155 188 209 221 182 160 156 233 194 111 117 130 142 140 115 139 249 354 314 291 135 225 271 269 298 330 289 291 282 257 245 234 225 214 209 210 213 218
313 312 305 296 283 263 257 257 253 253 252 239 222 196 162 135 115 91 81 248 287 35 94 156 144 44 110 158 182 188 34 57 65 177 175 185 194 193 238 216 175 197 208 201 229 265 77 190 189 161 170 205 207 260 176 171 177 182 139 90 71 78 86 94 105 118 62 14 265 234 163 208 271 275 297 314 246 259 263 258 242 234 229 217 209 208 211 217
314 312 307 301 289 269 265 261 251 252 251 232 207 175 154 138 108 85 227 239 325 327 86 97 156 30 90 141 198 343 32 22 45 131 143 180 194 200 290 186 158 149 246 285 259 249 7 67 167 163 183 181 135 71 136 154 143 130 107 72 57 46 51 55 64 87 76 273 260 231 173 168 286 275 247 209 222 211 214 253 249 237 228 215 209 209 215 222
309 308 305 302 294 282 274 266 254 247 242 225 191 165 148 131 96 140 213 257 354 290 77 43 14 56 83 118 242 350 42 11 45 130 133 135 184 219 342 160 154 99 276 283 271 277 1 66 217 205 169 138 104 71 49 66 108 114 93 95 91 349 16 22 359 56 137 249 259 243 178 162 240 260 249 235 253 213 188 212 214 215 217 207 205 211 219 224
308 302 299 296 293 286 274 269 264 250 236 210 179 163 147 129 176 188 233 336 347 206 107 83 104 97 102 85 295 240 82 350 12 117 151 151 174 205 208 192 171 141 246 239 234 307 259 220 228 231 181 164 128 91 50 13 62 106 101 109 114 309 331 323 294 192 222 245 244 164 175 228 237 253 261 259 262 240 212 213 202 197 204 205 206 213 218 222
314 304 296 288 286 284 275 270 263 248 227 190 173 164 148 213 195 191 214 238 234 210 115 147 127 117 138 75 314 213 193 219 185 156 177 155 175 230 247 247 214 183 240 213 202 213 259 273 195 173 224 193 171 157 172 205 173 159 147 137 148 174 238 254 252 259 254 245 225 188 204 261 268 268 249 244 251 245 224 224 216 202 202 207 211 213 217 223
320 317 305 289 280 279 277 269 257 246 217 180 170 166 185 227 196 184 201 206 227 259 134 155 125 117 150 173 229 192 166 240 179 160 168 141 161 240 257 251 242 263 37 191 199 187 221 271 200 178 194 185 184 186 161 145 156 178 158 140 162 165 187 227 219 217 243 252 268 272 236 212 218 269 247 233 253 268 247 234 226 215 210 210 210 210 216 224
322 324 315 297 281 274 274 265 256 247 213 179 170 194 203 220 214 183 206 200 195 190 183 161 117 139 231 218 227 207 196 234 167 141 179 175 183 207 206 219 215 195 169 217 219 177 217 255 232 210 17 165 180 187 109 117 147 197 125 118 194 192 165 198 203 177 173 268 250 231 245 228 213 270 277 257 261 268 252 233 223 215 209 201 202 208 215 223
322 326 322 311 295 284 276 264 255 238 206 179 180 230 203 226 222 185 216 185 186 170 150 127 108 159 239 232 232 230 201 216 166 151 209 203 208 210 199 208 198 191 194 200 200 170 214 266 307 360 10 150 172 148 120 148 179 169 140 180 216 173 120 118 240 98 76 255 249 191 238 280 306 285 291 324 281 270 241 215 211 205 198 193 202 211 215 223
327 331 326 323 321 307 281 270 255 221 197 182 212 226 206 237 206 200 252 153 186 167 145 170 179 163 193 215 217 205 185 209 179 169 206 214 229 213 205 222 200 194 201 202 216 209 193 251 272 144 66 210 168 101 85 42 138 135 185 222 196 117 97 109 230 356 41 252 267 204 217 264 291 277 320 8 313 271 236 209 214 211 201 205 214 217 220 227
332 331 324 327 332 317 297 290 248 209 195 191 237 226 224 236 211 203 189 132 158 175 152 202 196 159 175 190 195 181 174 187 175 171 195 223 239 189 178 211 206 203 205 203 225 256 186 233 271 161 191 239 123 107 114 335 132 146 219 245 121 146 174 119 167 209 215 247 281 268 233 246 232 233 280 266 235 235 226 206 211 223 215 218 224 223 223 226
334 330 319 325 325 324 329 288 222 202 197 210 226 220 222 229 244 249 214 166 193 200 191 222 220 187 175 174 172 167 175 184 177 182 200 213 238 195 172 202 216 210 200 190 206 260 191 225 259 227 218 235 61 149 185 198 201 117 314 299 14 162 177 161 166 169 187 221 275 294 282 236 230 215 206 227 224 211 207 199 209 219 212 217 225 227 223 223
337 331 306 314 325 336 331 236 205 197 205 246 228 233 246 232 243 242 233 230 248 228 217 222 216 204 184 181 183 171 183 188 174 182 204 213 250 238 198 196 195 199 189 187 204 253 199 245 249 310 306 227 185 205 194 188 190 174 171 204 214 175 142 174 215 133 140 185 209 277 269 243 235 198 188 217 223 202 194 196 209 217 211 217 225 229 226 226
342 332 294 317 329 336 317 208 200 220 254 242 255 270 301 305 296 247 234 228 236 272 240 211 216 208 188 194 207 183 180 187 172 179 205 216 234 241 218 191 164 138 148 177 213 218 204 241 213 150 221 218 225 241 191 170 181 172 182 202 193 177 129 135 248 218 123 186 178 208 267 256 223 195 205 216 211 198 195 195 204 213 211 216 224 229 229 229
342 299 298 326 333 332 240 188 234 281 230 263 293 292 336 333 330 322 256 233 235 268 275 250 228 216 200 198 208 180 165 177 175 183 214 222 221 221 206 176 168 159 143 166 224 205 163 169 165 183 219 211 235 282 95 105 138 153 214 224 171 177 143 160 226 222 175 229 163 145 276 270 200 208 228 226 212 199 199 195 198 210 209 213 222 225 226 230
329 304 308 326 337 275 182 195 265 250 239 285 291 310 343 340 317 333 314 252 240 227 236 268 228 224 227 203 189 170 164 189 197 205 234 237 230 235 222 182 166 167 165 198 237 179 146 174 204 242 287 337 6 10 59 53 73 168 237 204 183 212 208 190 203 172 187 214 143 167 260 259 35 281 247 243 231 195 197 200 199 205 207 211 220 218 218 225
323 311 309 322 313 200 187 198 257 246 269 284 294 325 329 305 259 301 299 273 282 254 226 241 218 223 229 193 184 184 177 192 213 219 231 238 240 243 227 200 181 180 191 205 194 179 177 190 203 220 277 304 332 352 291 323 171 214 225 201 207 214 199 182 114 128 238 207 165 202 252 242 339 288 272 237 205 191 215 213 202 198 203 211 217 213 213 221
326 316 311 319 287 215 209 225 274 276 313 320 325 328 317 294 242 267 277 277 283 284 280 273 252 240 233 195 199 203 194 207 226 220 221 237 250 249 227 211 200 198 217 261 264 193 183 183 190 198 221 234 231 215 214 190 169 229 218 197 207 203 194 187 128 196 234 207 176 210 248 249 249 264 252 234 219 217 236 227 211 207 209 214 218 212 210 217
326 316 311 318 308 245 241 259 352 31 358 343 330 305 301 319 304 293 288 269 266 262 261 282 287 282 270 214 220 228 219 220 228 222 217 231 239 247 229 215 208 211 237 301 343 126 169 208 197 199 220 231 234 224 203 149 161 206 207 201 204 203 199 187 167 210 198 184 215 217 234 256 259 253 242 221 207 219 225 223 220 219 220 222 223 218 214 216
320 300 318 324 327 307 278 295 22 31 328 316 318 286 299 318 317 310 283 260 290 289 262 265 276 264 243 220 225 234 230 224 224 232 242 239 242 271 274 218 215 217 215 260 70 121 141 232 206 206 226 239 248 240 212 177 207 213 208 207 205 201 194 192 217 218 145 174 243 202 199 250 255 253 253 239 208 217 219 208 215 222 225 227 227 222 216 215
316 295 309 317 322 325 317 336 347 336 309 305 279 270 297 302 306 310 291 302 333 334 325 303 260 250 241 233 238 237 230 230 225 226 239 243 243 256 266 248 218 207 195 196 147 136 156 237 219 216 235 247 255 248 226 226 237 229 220 217 208 197 191 201 222 218 173 214 238 170 193 236 246 249 258 253 207 209 220 220 225 228 229 230 228 222 218 216
309 301 306 316 320 303 307 315 318 308 300 313 296 272 292 294 295 305 321 349 342 327 314 296 287 292 285 276 274 257 237 237 229 218 226 237 236 237 244 244 224 194 183 186 201 148 160 241 238 228 243 250 249 243 224 222 240 247 237 227 214 204 201 207 220 218 209 228 245 215 231 246 245 245 257 260 188 202 221 225 227 229 228 227 226 221 220 219
313 317 320 324 318 301 297 302 306 297 299 314 296 279 286 286 294 316 349 341 317 310 310 307 317 326 321 315 310 291 277 276 265 248 230 228 227 218 224 231 221 204 188 190 201 175 194 232 217 170 245 253 246 240 226 214 228 244 243 233 222 219 217 220 225 223 225 238 255 274 267 260 250 249 264 274 224 206 218 222 219 223 224 221 224 224 225 225
312 316 320 317 303 297 297 294 293 296 303 288 251 279 291 292 320 338 330 293 262 268 311 335 331 327 318 315 314 303 301 297 290 291 283 263 256 241 223 212 199 199 205 189 184 176 195 227 135 140 235 252 244 234 227 220 236 251 251 240 228 223 218 220 220 214 218 227 234 246 253 255 255 255 263 265 240 205 215 222 215 221 221 219 226 231 232 232
320 321 322 316 291 291 297 291 277 273 277 257 267 300 306 309 329 334 318 288 254 277 317 335 327 319 313 308 303 306 315 312 299 296 293 291 295 295 292 271 198 196 186 176 186 180 187 211 214 187 224 250 243 217 203 215 279 259 250 231 224 226 222 223 227 219 215 215 218 231 241 249 260 259 254 260 252 227 231 232 221 222 223 225 232 235 237 238